Gogerbank, United Kingdom

12:37 PM GMT on January 18, 2017 (GMT +0000)
Edinburgh Airport

Weather History for EGPH - December, 2011

Change the Weather History Date:

Monday, December 19, 2011

  Actual Average Record
Temperature  
Mean Temperature 36 °F -  
Max Temperature 42 °F 43 °F 59 °F (2015)
Min Temperature 30 °F 33 °F 19 °F (1999)
Degree Days  
Heating Degree Days 29    
Moisture  
Dew Point 36 °F    
Average Humidity 91    
Maximum Humidity 100    
Minimum Humidity 81    
Precipitation  
Precipitation 0.00 in 0.08 in - ()
Sea Level Pressure  
Sea Level Pressure 29.70 in    
Wind  
Wind Speed 5 mph ()    
Max Wind Speed 15 mph    
Max Gust Speed -    
Visibility 6.2 miles    
Events Rain    
Averages and records for this station are not official NWS values.
T = Trace of Precipitation, MM = Missing Value Source: Averaged Metar Reports

Daily Weather History Graph

Daily Weather History Graph

Search for Another Location

Airport or City:

Trip Planner

Search our weather history database for the weather conditions in past years. The results will help you decide how hot, cold, wet, or windy it might be!

Date:

Astronomy

Dec. 19, 2011 Rise Set
Actual Time 8:41 AM GMT 3:39 PM GMT
Civil Twilight 7:53 AM GMT 4:26 PM GMT
Nautical Twilight 7:04 AM GMT 5:15 PM GMT
Astronomical Twilight 6:19 AM GMT 6:01 PM GMT
Moon 1:47 AM GMT (12/19) 12:11 PM GMT (12/19)
Length of Visible Light 8h 32m
Length of Day
6h 58m
Waning Crescent, 34% of the Moon is Illuminated
Dec 19
Waning Crescent
Dec 24
New
Jan 1
First Quarter
Jan 9
Full
Jan 16
Last Quarter

Hourly Weather History & Observations

Time (GMT) Temp. Windchill Dew Point Humidity Pressure Visibility Wind Dir Wind Speed Gust Speed Precip Events Conditions
12:20 AM 30.2 °F - 28.4 °F 93% 29.95 in - WSW 2.3 mph - N/A   Clear
12:50 AM 32.0 °F 28.7 °F 30.2 °F 93% 29.92 in - Variable 3.5 mph - N/A   Clear
1:20 AM 32.0 °F 27.5 °F 30.2 °F 93% 29.92 in - West 4.6 mph - N/A   Clear
1:50 AM 32.0 °F - 30.2 °F 93% 29.92 in - Calm Calm - N/A   Clear
2:20 AM 32.0 °F 28.7 °F 32.0 °F 100% 29.92 in - West 3.5 mph - N/A   Clear
2:50 AM 33.8 °F 28.6 °F 32.0 °F 93% 29.89 in 6.2 mi West 5.8 mph - N/A   Unknown
3:20 AM 33.8 °F 28.6 °F 32.0 °F 93% 29.89 in 6.2 mi West 5.8 mph - N/A   Unknown
3:50 AM 33.8 °F 29.6 °F 32.0 °F 93% 29.89 in 6.2 mi West 4.6 mph - N/A   Unknown
4:20 AM 33.8 °F 30.8 °F 32.0 °F 93% 29.89 in - WNW 3.5 mph - N/A   Clear
4:50 AM 33.8 °F - 32.0 °F 93% 29.86 in 6.2 mi Calm Calm - N/A Rain Light Rain
5:20 AM 33.8 °F - 32.0 °F 93% 29.86 in 6.2 mi Calm Calm - N/A Rain Light Rain
5:50 AM 33.8 °F - 32.0 °F 93% 29.83 in 6.2 mi Calm Calm - N/A Rain Light Rain
6:20 AM 33.8 °F - 32.0 °F 93% 29.83 in 6.2 mi Calm Calm - N/A Rain Light Rain
6:50 AM 33.8 °F - 32.0 °F 93% 29.80 in 6.2 mi Calm Calm - N/A Rain Light Rain
7:20 AM 33.8 °F - 33.8 °F 100% 29.80 in 6.2 mi Calm Calm - N/A Rain Light Rain
7:50 AM 37.4 °F 34.9 °F 35.6 °F 93% 29.80 in 6.2 mi Variable 3.5 mph - N/A Rain Light Rain
8:20 AM 37.4 °F 34.9 °F 35.6 °F 93% 29.77 in 6.2 mi Variable 3.5 mph - N/A   Scattered Clouds
8:50 AM 37.4 °F 34.9 °F 35.6 °F 93% 29.74 in 6.2 mi SSE 3.5 mph - N/A   Partly Cloudy
9:20 AM 37.4 °F - 35.6 °F 93% 29.74 in 6.2 mi Variable 2.3 mph - N/A   Partly Cloudy
9:50 AM 37.4 °F - 35.6 °F 93% 29.71 in 6.2 mi Variable 2.3 mph - N/A   Partly Cloudy
10:20 AM 39.2 °F 35.9 °F 35.6 °F 87% 29.71 in 6.2 mi South 4.6 mph - N/A Rain Light Rain
10:50 AM 39.2 °F 34.2 °F 35.6 °F 87% 29.68 in 6.2 mi South 6.9 mph - N/A Rain Light Rain
11:20 AM 39.2 °F 37.0 °F 35.6 °F 87% 29.68 in 6.2 mi Variable 3.5 mph - N/A Rain Light Rain
11:50 AM 39.2 °F - 37.4 °F 93% 29.65 in 6.2 mi WSW 2.3 mph - N/A Rain Light Rain
12:20 PM 41.0 °F 37.1 °F 37.4 °F 87% 29.62 in 6.2 mi SSW 5.8 mph - N/A Rain Light Rain
12:50 PM 41.0 °F 36.4 °F 37.4 °F 87% 29.59 in 6.2 mi SSW 6.9 mph - N/A Rain Light Rain
1:20 PM 41.0 °F 35.2 °F 37.4 °F 87% 29.59 in 6.2 mi SW 9.2 mph - N/A Rain Light Rain
1:50 PM 41.0 °F 35.2 °F 39.2 °F 93% 29.56 in 6.2 mi WSW 9.2 mph - N/A   Scattered Clouds
2:20 PM 41.0 °F 33.9 °F 39.2 °F 93% 29.53 in 6.2 mi WSW 12.7 mph - N/A   Scattered Clouds
2:50 PM 41.0 °F 33.9 °F 39.2 °F 93% 29.53 in 6.2 mi WSW 12.7 mph - N/A Rain Light Rain Showers
3:20 PM 42.8 °F 36.6 °F 41.0 °F 93% 29.56 in 6.2 mi WSW 11.5 mph - N/A Rain Light Rain Showers
3:50 PM 42.8 °F 37.0 °F 41.0 °F 93% 29.56 in 6.2 mi WSW 10.4 mph - N/A   Partly Cloudy
4:20 PM 41.0 °F 36.4 °F 39.2 °F 93% 29.56 in 6.2 mi WSW 6.9 mph - N/A   Scattered Clouds
4:50 PM 41.0 °F 35.8 °F 39.2 °F 93% 29.56 in 6.2 mi WSW 8.1 mph - N/A   Mostly Cloudy
5:20 PM 41.0 °F 35.8 °F 39.2 °F 93% 29.56 in 6.2 mi WSW 8.1 mph - N/A   Mostly Cloudy
5:50 PM 42.8 °F 37.0 °F 39.2 °F 87% 29.59 in 6.2 mi WSW 10.4 mph - N/A   Mostly Cloudy
6:20 PM 41.0 °F 33.5 °F 39.2 °F 93% 29.59 in 6.2 mi WSW 13.8 mph - N/A   Scattered Clouds
6:50 PM 42.8 °F 35.8 °F 39.2 °F 87% 29.59 in 6.2 mi WSW 13.8 mph - N/A   Partly Cloudy
7:20 PM 42.8 °F 35.8 °F 39.2 °F 87% 29.59 in - West 13.8 mph - N/A   Clear
7:50 PM 42.8 °F 35.4 °F 39.2 °F 87% 29.59 in - West 15.0 mph - N/A   Clear
8:20 PM 42.8 °F 36.2 °F 39.2 °F 87% 29.59 in - WSW 12.7 mph - N/A   Clear
8:50 PM 41.0 °F 34.3 °F 39.2 °F 93% 29.59 in - WSW 11.5 mph - N/A   Clear
9:20 PM 42.8 °F 35.8 °F 39.2 °F 87% 29.62 in - WSW 13.8 mph - N/A   Clear
9:50 PM 42.8 °F 36.2 °F 37.4 °F 81% 29.62 in - WSW 12.7 mph - N/A   Clear
10:20 PM 42.8 °F 36.2 °F 37.4 °F 81% 29.62 in 6.2 mi West 12.7 mph - N/A   Partly Cloudy
10:50 PM 42.8 °F 37.0 °F 37.4 °F 81% 29.62 in - West 10.4 mph - N/A   Clear
11:20 PM 41.0 °F 34.3 °F 35.6 °F 81% 29.65 in - West 11.5 mph - N/A   Clear
11:50 PM 39.2 °F 32.5 °F 35.6 °F 87% 29.65 in - WSW 10.4 mph - N/A   Clear